Home   Weather   Neustrelitz   Past weeks

Flag for Germany Past Weather in Neustrelitz, Mecklenburg-Western Pomerania, Germany — Yesterday and Last 2 Weeks

Now
34 °F

Fog.


Feels Like: 28 °F
Forecast: 26 / 33 °F
Wind: 7 mph from West

Location: Laage

Current Time: Jan 24, 2017 at 2:43:29 pm

Latest Report: Jan 24, 2017 at 1:20 pm


Visibility: 1 mi

Pressure: 30.33 "Hg

Humidity: 93%

Dew Point: 32 °F

Location of NeustrelitzLocation

Past Weather in Neustrelitz — Graph

°F

Neustrelitz Temperature Yesterday

Maximum temperature yesterday: 32 °F (at 12:26 pm)
Minimum temperature yesterday: 28 °F (at 12:20 am)
Average temperature yesterday: 30 °F

High & Low Weather Summary for the Past Weeks

 TemperatureHumidityPressure
High37 °F (Jan 11, 8:20 pm)100% (Jan 11, 1:43 pm)30.72 "Hg (Jan 11, 1:43 pm)
Low19 °F (Jan 16, 3:20 am)70% (Jan 16, 2:20 pm)29.06 "Hg (Jan 13, 7:08 am)
Average32 °F90%30.08 "Hg
* Reported Jan 9 1:42 pm — Jan 24 1:20 pm, Neustrelitz, Weather by CustomWeather, © 2017

Note: Actual official high and low records may vary slightly from our data, if they occured in-between our weather recording intervals... More about our weather records

Advertising

Neustrelitz Weather History for the Previous 24 Hours

Scroll right to see more
 ConditionsComfort  
Time TempWeatherWind HumidityBarometerVisibility
1:20 pm
Tue, Jan 24
34 °FFog.7 mph93%30.33 "Hg1 mi
12:42 pm32 °FFog.7 mph100%30.36 "Hg1 mi
11:34 am32 °FFog.7 mph100%30.33 "Hg0 mi
10:20 am32 °FIce fog.6 mph93%30.33 "Hg1 mi
9:20 am32 °FLight freezing rain. Ice fog.5 mph93%30.33 "Hg1 mi
8:52 am32 °FLight freezing rain. Ice fog.9 mph93%30.30 "Hg1 mi
8:20 am32 °FLight freezing rain. Ice fog.10 mph93%30.30 "Hg1 mi
7:20 am32 °FLight freezing rain. Ice fog.9 mph93%30.30 "Hg1 mi
6:37 am32 °FIce fog.7 mph93%30.27 "Hg1 mi
6:14 am32 °FIce fog.7 mph93%30.27 "Hg1 mi
5:42 am32 °FIce fog.8 mph93%30.27 "Hg1 mi
5:20 am32 °FIce fog.7 mph93%30.27 "Hg1 mi
4:20 am32 °FIce fog.7 mph100%30.27 "Hg1 mi
3:20 am32 °FIce fog.5 mph93%30.27 "Hg1 mi
2:20 am32 °FIce fog.3 mph93%30.24 "Hg1 mi
1:20 am32 °FIce fog.2 mph93%30.24 "Hg1 mi
12:20 am32 °FIce fog.2 mph93%30.24 "Hg1 mi
11:20 pm
Mon, Jan 23
32 °FIce fog.7 mph93%30.24 "Hg2 mi
10:20 pm32 °FIce fog.6 mph93%30.24 "Hg2 mi
9:20 pm32 °FIce fog.5 mph93%30.24 "Hg2 mi
8:20 pm32 °FIce fog.5 mph93%30.24 "Hg2 mi
7:39 pm32 °FIce fog.5 mph93%30.24 "Hg3 mi
7:20 pm32 °FIce fog.7 mph93%30.24 "Hg3 mi
6:20 pm32 °FIce fog.7 mph93%30.24 "Hg3 mi
5:38 pm32 °FIce fog.5 mph93%30.24 "Hg3 mi
5:20 pm32 °FIce fog.5 mph93%30.24 "Hg3 mi
4:40 pm32 °FIce fog.6 mph93%30.24 "Hg2 mi
4:20 pm32 °FIce fog.6 mph93%30.24 "Hg2 mi
3:20 pm32 °FIce fog.6 mph93%30.24 "Hg3 mi
2:51 pm32 °FOvercast.5 mph93%30.24 "Hg4 mi
2:20 pm32 °FOvercast.3 mph93%30.21 "Hg4 mi
Weather by CustomWeather, © 2017

See weather overviewHow to use our weather pages